Temp
27 26 26 26 25 25 25 25 25 25 25 25 25 24 25 25 24 24 24 23 23 23 23 22 22 22 22 22 22 22 21 21 21 21 21 21 21 21 21 21 21 21 21 21 21 21 21 21 21 21 21 21 20 21 21 21 21 21 20 20 20 20 20 20 20 20 21 21 21 21 20 20 20 19 19 19 19 19 18 18 18 18 18 18 18
27 26 26 26 25 25 25 25 25 25 25 25 24 24 25 25 24 24 23 23 23 23 22 22 22 21 22 22 21 21 21 21 21 21 21 21 21 21 21 21 21 21 21 21 21 21 21 21 21 21 21 21 20 21 21 21 21 21 20 20 20 20 20 20 20 20 20 20 20 20 20 20 20 20 19 19 19 19 19 19 18 18 18 18 18
28 27 26 26 25 25 25 25 25 25 25 24 24 25 25 24 24 24 24 23 23 23 23 22 22 22 21 21 21 21 21 21 21 21 21 21 21 21 21 21 21 21 21 21 21 21 21 21 21 21 21 21 21 21 21 21 21 21 20 20 20 20 20 20 20 20 20 20 20 20 21 20 20 20 19 19 19 19 18 18 18 18 19 18 18
29 27 26 26 25 25 25 25 25 25 25 25 25 25 25 24 24 24 24 23 23 23 23 22 22 22 21 21 21 21 20 20 21 21 21 21 21 21 21 21 21 21 21 21 21 21 21 21 21 21 22 22 22 21 21 21 20 20 20 20 20 20 20 20 20 20 20 20 20 20 20 20 20 20 19 19 19 19 19 18 18 18 18 18 18
31 28 27 27 26 25 25 25 25 25 25 25 25 25 25 24 24 24 23 23 23 23 23 22 22 21 21 21 21 20 20 20 20 21 21 21 21 21 21 21 21 21 21 21 21 21 21 21 21 22 22 22 22 22 21 21 21 20 20 20 20 20 20 20 20 19 19 19 20 20 20 20 20 19 19 19 19 19 19 19 19 18 18 18 18
31 29 28 28 26 25 25 25 25 25 25 25 25 25 25 24 24 23 23 23 23 23 22 22 21 21 21 21 21 20 20 20 20 21 21 21 21 21 21 21 21 21 21 21 21 21 21 21 21 21 22 22 22 22 21 21 21 21 20 20 20 20 20 20 20 20 19 19 19 19 19 19 19 19 19 19 19 19 19 19 19 19 19 19 19
32 30 29 29 27 26 26 26 26 25 25 24 24 24 24 23 23 23 23 23 23 22 22 22 22 21 20 20 20 20 20 20 20 20 21 21 21 21 21 21 21 21 21 21 21 21 21 21 21 22 22 22 22 21 21 21 21 21 20 20 20 20 20 20 20 20 20 20 19 19 19 19 19 19 19 19 19 19 19 19 19 19 19 19 19
31 30 30 29 27 26 26 25 25 24 23 23 23 23 23 23 23 24 24 24 23 22 22 22 22 21 20 20 20 21 20 20 20 20 20 20 21 21 21 21 21 21 21 22 21 21 21 21 22 22 22 21 21 21 21 21 21 21 21 21 20 20 20 20 20 20 20 20 20 19 19 19 19 19 20 19 19 19 19 19 19 19 19 19 19
30 30 29 29 27 25 26 25 23 21 21 22 22 23 23 23 24 24 24 24 23 22 22 23 23 21 20 20 20 21 21 20 20 20 20 20 20 20 21 21 21 21 21 22 22 21 21 21 21 22 21 21 21 21 21 21 20 20 20 20 20 20 20 19 19 20 20 19 19 19 19 19 19 19 20 20 20 19 19 19 19 19 19 18 18
29 29 28 28 26 25 25 24 21 20 20 21 22 23 24 24 25 24 24 22 21 21 22 23 22 21 20 19 19 20 21 21 21 20 20 20 20 20 21 21 21 21 21 21 21 21 21 21 21 21 21 21 21 20 20 21 21 20 20 20 20 19 19 19 19 19 19 19 19 19 19 19 20 19 19 20 19 19 19 18 18 18 18 18 18
28 28 28 27 26 25 25 23 20 20 21 21 22 23 23 24 24 24 23 22 21 22 22 22 21 20 19 19 19 19 20 21 21 21 21 21 20 21 21 21 21 21 21 21 21 21 21 21 21 21 20 19 20 20 20 20 20 20 20 20 19 19 18 18 19 19 19 19 19 19 19 19 19 19 19 19 19 19 18 18 18 18 17 17 18
28 28 28 27 25 25 24 22 20 20 20 21 22 23 23 23 23 23 23 22 22 21 21 21 20 19 19 19 20 20 20 21 21 21 21 21 21 21 20 20 20 20 21 21 21 21 21 20 20 20 19 19 19 19 19 19 19 19 19 19 19 19 19 18 18 18 18 18 19 19 19 19 19 19 19 19 18 18 17 17 17 17 17 17 17
28 28 27 26 24 24 24 22 20 20 20 21 21 22 22 22 22 22 22 22 21 21 20 19 19 19 19 20 20 20 21 21 21 21 21 21 21 20 20 20 20 20 20 20 20 20 20 19 19 19 19 19 18 18 19 19 19 18 18 19 19 19 19 18 18 18 17 18 18 18 18 18 18 18 18 17 17 16 16 16 16 16 17 16 16
28 27 26 25 24 24 24 22 20 20 20 20 21 21 21 21 21 21 21 21 21 20 19 19 19 19 19 20 20 20 20 20 21 21 21 21 20 20 20 20 20 19 20 20 19 19 19 19 19 19 19 19 18 18 19 19 18 17 18 18 19 19 19 19 18 18 17 16 17 17 17 17 17 17 16 16 16 16 16 16 16 16 16 16 16
28 27 26 25 24 24 23 22 21 20 20 20 20 20 21 21 21 21 21 20 20 20 19 19 19 19 19 20 20 20 19 20 20 21 20 20 20 20 20 20 20 20 20 19 19 19 19 19 19 19 18 18 18 18 19 18 18 18 18 18 19 19 19 19 18 18 17 16 16 17 17 16 16 15 15 15 15 15 15 15 15 15 15 15 15
27 26 25 24 24 24 23 22 21 21 20 20 20 20 20 21 21 21 21 21 20 20 20 20 19 20 20 19 19 19 19 20 20 20 20 20 20 20 20 20 20 19 19 19 19 19 19 19 19 18 18 18 18 19 18 18 17 17 18 18 18 18 18 18 18 17 17 17 16 16 15 15 15 14 14 14 13 13 14 14 14 14 15 15 16
26 25 25 24 24 23 22 22 22 22 21 21 21 21 21 21 21 21 21 21 21 20 20 20 20 20 19 19 19 19 19 20 20 20 20 20 20 21 20 19 19 19 19 19 19 19 20 20 19 18 18 18 18 18 18 17 17 17 17 18 18 18 18 18 18 17 17 16 16 15 15 14 14 14 14 14 14 13 13 14 14 15 16 16 17
26 25 25 24 23 23 22 22 22 22 22 22 22 22 21 21 21 21 21 21 21 21 21 20 19 19 18 18 19 19 19 20 20 20 20 20 21 21 20 19 19 19 19 20 19 19 19 19 19 18 18 17 17 17 17 17 16 16 17 17 17 17 18 18 18 18 17 16 15 15 15 15 14 14 14 14 15 14 13 13 14 16 16 16 17
26 25 25 24 23 23 22 22 22 22 22 22 22 22 22 22 21 21 21 21 20 20 20 20 20 19 19 19 19 19 19 20 20 20 20 21 22 21 20 19 20 19 19 19 18 18 17 18 18 18 17 17 17 17 16 16 16 16 16 17 17 17 17 17 17 17 16 15 15 15 15 15 15 15 15 15 15 15 14 14 15 15 16 16 17
25 25 25 24 23 23 23 22 22 22 22 22 21 22 22 22 21 21 21 21 21 20 20 20 20 20 20 20 20 20 20 20 20 21 22 22 22 21 19 19 19 19 19 19 18 18 17 17 17 17 17 16 16 16 16 16 15 15 15 16 17 16 16 16 15 14 14 14 14 15 15 15 15 16 16 16 16 16 16 16 16 16 16 16 17
25 25 25 24 23 23 22 22 22 22 22 22 21 22 23 22 21 21 21 22 22 21 21 21 21 21 21 21 21 20 21 21 21 22 22 21 21 20 19 18 18 19 19 19 19 19 18 17 17 16 16 16 16 16 16 15 15 14 15 16 15 15 14 14 13 13 14 14 15 15 15 16 16 16 17 17 17 17 17 17 16 16 16 16 16
24 24 24 24 24 23 23 22 22 22 22 22 22 22 22 21 20 20 21 22 22 21 21 21 22 22 22 22 21 21 21 21 21 21 20 19 19 19 18 18 18 19 19 19 19 19 18 18 17 16 15 16 15 15 15 14 14 14 14 14 14 13 13 13 13 14 15 15 15 15 15 15 16 16 17 17 17 16 16 16 15 15 15 15 15
24 24 24 23 23 23 23 22 22 22 22 22 22 21 21 20 20 20 21 21 21 21 21 21 22 22 22 22 21 21 20 19 19 19 19 18 19 19 18 18 18 18 19 19 19 19 18 17 16 15 15 15 15 15 14 13 13 13 13 13 13 13 13 12 13 14 14 14 14 14 15 16 16 16 16 16 16 15 15 14 14 14 14 14 14
23 23 23 23 22 23 22 22 22 21 21 21 21 20 20 20 20 20 21 21 21 21 21 21 22 22 22 22 21 20 19 19 19 19 19 19 19 19 19 18 18 18 18 19 19 18 18 17 16 15 15 15 14 14 13 13 13 13 13 13 13 13 12 13 14 14 14 14 14 15 15 16 16 16 15 15 14 14 13 13 13 13 13 14 13
23 23 23 22 22 22 22 21 21 21 21 21 21 21 20 21 21 20 21 21 21 21 22 22 22 22 22 22 21 20 19 19 19 19 19 19 19 18 18 17 16 17 18 18 17 17 16 16 15 15 14 14 13 13 13 13 13 13 13 13 12 13 13 14 14 14 14 14 15 15 15 15 15 15 14 14 13 13 13 13 13 13 14 14 14
23 23 22 22 22 22 21 21 21 21 21 21 21 21 21 21 21 21 21 21 21 22 22 22 22 22 22 22 21 20 19 19 18 19 19 18 18 17 16 16 16 17 18 17 16 16 15 15 14 14 13 13 13 13 13 13 13 13 12 12 12 13 14 14 14 14 14 14 14 15 15 15 14 14 13 13 13 13 13 13 13 14 14 14 14
23 23 22 22 22 22 22 22 21 21 21 21 21 21 21 21 21 21 21 22 22 22 22 22 22 22 22 22 21 20 19 19 19 19 18 17 17 16 15 16 17 18 17 16 15 15 14 14 14 14 13 13 13 13 13 13 13 13 13 13 13 14 14 13 13 13 13 14 14 14 14 14 14 13 13 13 14 14 14 13 13 14 14 14 14
23 23 23 22 22 22 22 22 22 21 22 22 22 22 21 22 22 22 22 22 22 21 21 22 22 22 22 22 21 20 20 19 19 19 18 18 17 17 17 17 17 17 17 16 16 15 14 13 13 14 13 13 13 14 14 14 14 14 14 14 14 14 13 13 13 13 13 13 13 13 13 13 13 13 14 14 14 14 14 13 13 13 14 14 14
24 24 23 23 23 22 22 22 22 22 22 21 21 21 21 21 21 21 21 21 21 21 21 22 22 22 22 22 21 20 20 20 19 19 19 19 19 19 18 18 17 17 17 17 16 15 14 14 15 15 15 15 15 16 16 16 15 15 14 14 14 14 14 14 14 14 13 13 13 13 13 13 13 14 14 14 14 14 14 13 13 13 14 14 15
24 24 24 24 23 23 23 23 22 22 22 21 19 19 19 19 20 20 19 19 20 20 20 20 21 21 22 22 21 21 20 20 20 19 19 19 19 19 18 18 17 17 16 15 15 16 16 16 17 17 17 17 17 17 17 17 16 16 15 15 14 14 14 14 14 14 13 13 13 13 13 13 13 14 14 14 14 14 14 14 14 14 14 14 15
25 25 25 25 24 23 23 23 23 22 22 22 20 19 18 18 18 18 18 18 18 18 19 19 20 20 20 20 20 20 20 20 19 19 19 19 19 18 17 17 16 16 15 14 15 16 17 17 17 17 17 17 17 17 17 17 16 16 15 15 15 15 14 14 14 13 13 13 13 13 13 13 13 13 14 14 14 14 14 14 14 14 15 15 15
25 25 25 25 23 23 23 24 23 22 22 22 21 20 20 19 17 17 17 17 17 18 18 19 19 20 19 19 19 20 19 18 18 19 19 19 18 17 17 16 15 14 14 14 15 17 17 17 17 17 17 17 17 17 17 16 16 15 15 15 15 15 14 14 12 12 12 13 13 13 13 13 13 13 13 13 14 14 14 14 15 15 14 14 14
25 25 25 24 22 22 23 23 23 22 22 21 21 21 21 21 20 17 16 16 16 18 18 19 19 19 18 18 18 19 18 18 18 18 18 18 17 17 15 14 14 13 14 14 16 17 18 17 17 17 17 17 17 17 16 16 16 15 15 15 14 14 14 12 11 11 12 12 12 13 13 13 13 13 13 14 14 14 14 15 15 14 14 14 14
24 24 23 23 22 22 23 22 22 22 22 21 21 21 21 21 22 20 18 17 17 17 17 17 17 17 17 17 17 17 17 17 17 18 17 17 16 15 14 13 13 13 13 15 16 17 18 18 17 17 17 16 16 16 16 15 15 14 14 14 14 14 13 12 12 12 13 13 13 13 13 13 13 13 13 14 14 14 14 15 15 14 14 13 14
23 22 22 22 22 22 22 22 22 22 22 21 21 21 21 21 22 22 21 21 20 18 17 15 15 15 16 16 16 16 17 17 17 17 16 16 15 14 13 14 14 14 14 14 15 16 17 17 16 16 16 16 15 15 15 15 14 14 14 13 13 13 13 13 13 13 12 12 13 13 13 13 13 13 13 14 14 14 14 15 15 14 14 14 14
23 22 21 21 22 22 22 22 22 22 21 21 21 21 21 21 21 21 22 22 22 20 17 14 13 14 15 15 15 15 16 16 16 15 14 14 14 14 14 15 16 16 16 16 15 16 16 16 16 15 15 15 15 15 15 14 13 13 13 13 13 13 13 13 13 12 12 12 13 13 12 13 13 13 13 13 14 14 14 14 14 14 14 14 14
23 23 22 22 22 22 22 21 21 20 20 20 20 21 21 21 21 22 22 22 21 20 17 15 14 14 14 14 15 15 15 14 14 14 13 13 13 14 15 16 17 17 17 17 16 15 15 15 15 15 15 14 14 14 14 13 13 12 12 11 11 12 12 12 11 11 11 12 12 12 13 13 13 13 13 13 14 14 14 14 14 14 14 14 14
23 23 22 22 22 22 21 20 20 20 20 20 20 20 20 20 21 21 21 21 21 20 19 17 17 16 15 13 13 14 13 13 13 13 13 13 13 14 15 16 16 17 17 16 15 15 15 15 15 14 14 14 14 14 14 13 12 12 12 12 11 11 11 11 11 11 11 12 13 13 13 13 13 13 13 13 13 14 14 14 14 14 14 14 14
21 21 21 21 21 21 21 20 20 20 20 20 20 20 20 21 21 21 21 21 21 21 21 19 19 19 16 13 12 12 13 13 13 13 13 13 14 15 16 16 16 16 16 16 15 15 14 14 15 14 14 14 14 14 13 12 12 12 11 11 12 12 12 12 12 12 12 12 13 12 12 13 13 13 13 13 13 13 13 13 14 14 14 14 15
21 20 20 20 20 20 20 20 20 20 20 20 20 20 20 21 21 21 21 21 21 21 20 20 20 19 17 14 13 13 14 15 16 16 15 15 15 15 15 16 16 16 16 15 15 15 14 14 14 14 13 13 13 12 12 11 12 11 11 11 12 12 12 12 12 12 12 12 12 12 12 12 12 12 13 13 13 13 13 13 14 14 14 14 14
21 20 19 19 19 20 20 20 20 20 20 20 20 20 20 20 20 20 20 20 20 20 20 20 19 18 16 15 15 15 16 17 17 16 16 16 16 15 16 16 16 16 16 16 15 15 15 15 15 14 14 13 13 12 11 11 11 11 12 12 12 12 12 12 12 12 12 12 12 12 12 12 12 12 12 12 12 13 13 13 14 14 14 14 14
20 19 19 19 19 20 20 20 19 18 18 18 19 19 19 18 18 18 19 19 20 20 19 19 18 16 15 15 15 15 16 17 17 17 16 16 16 16 16 16 16 16 15 15 15 15 15 15 15 14 14 13 12 11 11 11 11 11 12 12 12 12 12 12 12 11 11 11 11 11 11 11 11 12 12 12 12 13 13 13 13 14 14 14 14
19 19 19 20 20 19 19 18 18 18 18 17 17 17 17 17 17 17 18 18 18 19 19 18 16 15 14 14 14 14 15 17 17 17 17 16 16 16 16 16 15 15 15 14 14 14 14 14 14 14 13 12 11 11 11 11 11 11 11 12 12 11 11 12 12 11 11 11 11 11 11 11 12 12 12 12 12 13 13 13 13 13 14 14 14
19 19 18 19 19 18 17 17 17 17 17 16 16 15 15 16 16 17 18 18 18 18 18 18 16 15 14 14 13 13 15 16 17 17 16 16 16 16 15 15 15 14 13 13 13 13 13 13 13 13 12 11 11 10 10 10 10 11 11 11 11 11 11 11 11 11 10 10 10 10 11 11 12 12 12 12 12 12 13 13 13 13 13 14 14
19 18 18 18 18 17 17 17 16 15 15 15 15 15 15 16 17 18 18 18 18 18 18 18 18 17 16 15 14 14 15 16 16 16 16 16 15 15 15 14 13 13 13 13 13 13 12 13 12 12 11 11 10 10 10 10 10 10 10 10 10 11 11 10 10 10 9 9 9 10 11 11 11 12 12 12 12 12 13 13 13 13 13 13 14
19 19 19 18 17 17 16 16 15 15 15 15 16 16 16 17 17 18 18 18 18 18 17 17 17 18 17 16 15 15 15 16 16 16 16 15 15 15 14 14 13 13 13 13 13 12 12 12 12 12 11 11 10 10 9 9 9 9 9 9 9 9 10 9 9 9 9 9 9 9 10 10 11 11 11 11 12 12 12 12 13 13 13 13 13
18 18 18 17 16 16 15 15 15 15 16 16 17 17 18 18 18 18 18 17 17 17 17 17 17 17 17 17 16 16 16 16 16 16 16 15 15 15 15 14 14 14 13 13 12 12 12 11 11 11 11 10 10 9 9 9 9 9 9 9 8 8 8 8 8 8 8 8 8 9 9 10 11 11 11 11 11 12 12 12 12 13 13 13 13
17 17 16 16 16 16 16 16 16 16 17 18 18 18 18 18 18 18 18 17 17 17 18 18 17 17 17 17 17 17 16 16 16 16 16 15 15 15 15 14 14 13 13 13 12 12 12 11 11 11 10 10 10 9 9 9 9 9 9 9 8 8 8 7 7 7 7 7 7 8 9 10 10 11 11 11 11 11 12 12 12 12 13 13 13
18 18 17 17 18 18 18 18 18 18 18 18 18 18 18 18 18 18 18 18 18 18 18 18 18 18 17 17 17 16 16 16 16 16 16 15 15 14 14 14 13 13 13 13 12 12 11 11 11 11 10 10 10 9 9 9 9 9 9 8 8 7 7 7 7 6 6 6 7 8 9 10 10 10 11 11 11 11 12 12 12 12 12 13 13
18 19 19 19 19 19 18 18 18 18 18 18 18 18 18 18 18 18 18 18 18 18 18 18 18 18 18 17 17 16 16 16 16 16 16 15 15 15 14 14 13 13 13 12 12 12 11 11 10 10 10 10 10 10 9 9 9 9 9 8 7 7 7 7 6 6 6 6 6 8 9 9 10 10 10 11 11 11 11 11 11 12 12 13 13
18 19 19 19 19 18 18 18 18 18 18 18 18 18 18 18 18 19 18 18 18 18 18 18 17 17 17 17 17 16 16 16 16 16 15 15 15 15 14 13 13 13 12 12 12 12 11 11 11 10 10 10 10 10 9 9 9 9 8 7 7 7 7 6 6 6 6 6 6 7 8 9 10 10 10 10 10 11 11 11 11 12 12 13 13
Height
760 763 766 769 772 775 778 781 784 787 788 791 795 797 800 802 806 809 811 814 816 817 819 820 822 824 826 828 830 832 833 834 835 835 836 836 836 836 836 837 837 837 837 837 837 837 837 836 836 836 835 835 834 834 833 833 833 832 832 831 830 830 830 829 827 824 822 821 821 820 820 820 820 820 819 818 818 817 816 815 814 813 811 810 809
756 759 762 765 768 771 774 777 780 782 785 787 789 792 795 798 803 806 809 812 814 816 817 818 819 821 823 826 828 830 831 832 833 834 834 834 834 834 835 835 835 835 835 835 835 835 835 834 834 834 834 833 832 832 831 831 831 830 830 830 829 828 828 828 826 824 821 819 818 817 817 817 816 816 816 815 814 813 812 812 811 810 809 807 805
752 755 758 761 764 766 769 772 775 778 780 782 785 788 791 795 799 803 807 809 811 814 816 818 818 819 821 824 826 828 829 830 831 832 832 832 832 832 832 833 833 833 833 833 833 833 833 832 832 832 831 831 830 830 829 829 829 828 828 828 827 826 826 825 824 822 820 819 817 815 814 814 813 812 812 811 811 810 808 808 807 806 805 803 802
748 751 754 756 759 761 764 767 769 772 774 776 780 785 790 794 798 802 805 808 809 812 815 816 817 817 818 820 823 825 826 827 828 829 829 829 830 830 830 830 831 831 830 830 830 830 830 830 830 830 829 829 828 828 828 827 827 827 826 826 825 824 823 823 821 820 819 817 816 814 813 811 810 809 808 807 806 806 805 804 803 802 801 800 799
744 746 748 751 754 757 760 762 764 766 768 773 779 787 792 795 798 801 804 806 808 811 813 813 814 814 812 812 816 820 822 823 824 825 826 827 827 827 828 828 828 828 828 827 827 827 828 828 828 828 827 827 827 826 826 826 825 825 824 823 822 822 821 820 819 818 816 814 813 812 811 809 807 806 805 804 803 802 801 800 799 799 798 797 795
739 741 743 746 749 752 755 757 759 761 766 774 781 787 791 795 798 801 803 805 808 811 811 810 810 810 806 802 806 813 817 819 821 821 823 824 824 825 825 826 826 826 825 825 825 825 826 826 826 826 825 825 824 824 824 824 823 822 821 820 820 819 818 817 816 815 814 812 811 809 808 807 806 804 803 801 800 798 797 796 796 795 794 793 792
735 737 740 742 745 747 749 752 756 762 770 778 783 785 789 794 797 799 801 802 803 802 800 802 804 805 805 801 799 804 810 814 817 818 819 821 822 823 823 824 823 823 823 823 823 823 824 824 824 823 823 822 822 822 822 821 821 820 819 818 817 817 816 815 814 813 811 810 808 806 805 804 804 802 800 798 797 796 795 793 792 792 791 790 788
732 735 738 740 742 744 747 753 759 765 772 777 782 787 791 795 797 799 797 793 790 787 788 792 795 797 801 800 798 799 803 808 811 814 815 817 819 820 821 821 821 821 821 821 821 821 821 821 821 820 820 820 820 820 819 819 818 817 817 816 815 814 814 813 811 810 808 806 805 803 802 801 801 800 798 796 794 793 792 791 789 788 787 786 785
730 734 736 739 742 745 749 756 761 764 769 774 780 786 790 790 792 791 786 780 779 781 783 786 788 790 793 797 797 796 798 802 805 808 811 813 815 817 818 819 819 819 819 819 819 818 818 818 817 817 817 817 817 817 817 816 815 814 814 814 813 812 811 811 809 807 805 803 802 801 800 799 798 797 795 793 792 790 789 788 786 784 784 783 781
728 732 734 737 742 746 750 756 759 760 764 768 773 778 777 774 774 775 774 774 776 780 782 783 784 787 791 795 798 796 796 798 801 803 806 808 811 813 815 816 816 816 817 817 817 816 816 815 814 814 814 813 813 813 813 813 813 812 812 811 811 810 808 808 807 805 803 800 799 798 798 796 795 794 792 790 789 788 786 785 784 782 781 778 776
726 729 732 735 740 744 748 751 752 753 756 759 762 765 764 763 763 766 769 772 773 776 779 780 781 784 787 792 795 796 795 795 797 800 802 804 807 809 811 812 813 814 815 815 815 814 813 813 812 811 811 810 810 809 809 809 809 809 809 808 807 806 806 805 804 803 800 798 796 796 795 794 793 792 790 787 786 785 784 783 782 780 779 776 773
723 727 729 733 737 741 745 746 745 746 749 752 755 757 759 761 762 763 764 766 769 772 775 777 779 781 783 787 791 793 792 792 794 797 800 802 804 805 807 809 810 811 812 812 812 812 811 811 809 808 808 808 808 808 807 806 806 806 806 805 804 803 802 802 801 800 798 796 794 793 792 791 790 789 788 786 784 783 782 781 780 778 777 774 771
721 724 727 730 733 738 741 741 741 744 746 749 752 755 758 759 760 761 762 764 766 770 772 775 778 779 781 784 788 790 790 790 791 794 797 799 801 801 803 805 806 808 809 809 809 809 809 808 806 805 805 805 806 806 804 802 803 805 804 802 801 800 799 798 797 796 795 794 792 791 790 790 788 787 786 785 783 781 780 779 778 776 774 772 769
718 721 725 728 731 735 738 739 740 743 745 748 751 754 756 757 757 759 761 763 765 768 771 773 775 777 779 782 785 787 787 788 789 792 794 797 798 798 799 801 802 804 805 805 806 806 806 805 804 803 802 802 803 803 801 800 801 802 801 799 798 797 796 795 794 792 792 791 790 789 789 788 786 785 784 783 781 779 778 777 775 773 770 768 766
715 719 723 726 729 733 735 737 739 741 744 747 749 751 753 754 756 758 760 763 765 767 770 771 772 774 777 780 783 784 785 786 787 790 792 794 795 795 795 796 798 799 800 801 802 803 802 801 800 800 799 799 800 800 799 798 799 799 798 797 796 795 794 793 791 790 789 788 788 788 786 786 784 783 781 780 778 777 776 775 773 770 768 765 762
713 716 720 723 726 730 733 735 738 740 743 745 747 749 751 752 755 757 760 762 764 766 768 769 770 773 776 778 780 781 781 783 785 788 790 792 792 792 792 793 794 795 797 798 799 799 798 797 797 796 796 796 796 796 797 797 796 796 795 795 794 793 791 790 789 788 787 786 786 785 784 783 781 779 778 777 776 775 774 772 770 768 765 762 758
710 713 717 720 724 727 730 732 736 739 741 743 744 746 748 751 753 755 758 760 762 764 766 767 768 770 773 774 775 777 779 780 783 786 788 789 788 787 788 790 791 792 793 794 794 794 794 793 793 793 793 793 794 794 794 794 794 794 793 792 792 790 789 788 786 785 784 783 782 782 781 779 778 776 775 774 773 773 772 770 768 765 762 759 754
708 710 714 718 721 725 727 729 733 736 738 740 742 744 746 749 751 753 755 757 759 761 763 765 766 768 770 771 772 775 777 778 780 783 785 785 784 784 785 787 789 790 791 791 791 791 791 790 790 790 790 791 792 792 792 792 792 792 792 791 790 788 787 786 784 782 781 781 780 779 777 776 774 773 771 770 770 770 769 767 765 762 759 755 751
705 708 712 715 719 722 725 727 730 733 735 737 739 741 744 746 749 751 753 755 757 759 761 763 765 766 768 768 769 772 774 776 778 781 782 782 781 782 784 785 786 788 789 789 789 789 789 789 788 788 788 789 790 790 790 790 791 791 790 789 788 787 785 784 783 781 781 780 778 777 775 774 772 770 769 768 767 766 765 763 762 760 756 752 749
704 707 709 712 716 720 723 725 728 730 732 734 736 739 742 744 747 749 750 752 754 757 759 761 763 764 766 766 767 770 772 773 776 778 778 779 779 780 782 783 784 786 786 786 787 787 788 788 787 787 787 787 788 788 788 788 789 789 789 788 786 785 783 782 781 781 780 779 777 775 773 771 770 768 766 765 764 763 762 761 759 758 755 750 747
703 705 708 711 715 718 721 725 727 729 732 734 736 738 741 744 747 747 748 750 752 755 757 758 760 762 763 764 766 768 769 771 773 774 775 776 777 778 779 780 782 784 784 784 785 785 786 786 786 786 786 786 786 786 786 787 787 787 787 787 785 784 782 782 781 779 778 777 775 772 770 769 767 766 764 763 762 761 759 759 757 755 753 749 745
701 704 707 710 714 717 721 724 727 729 732 734 737 738 741 745 747 747 747 749 751 754 756 757 758 759 761 763 765 766 768 769 770 771 772 774 775 776 777 779 781 782 782 782 783 783 784 785 785 785 785 785 785 785 785 786 786 786 785 785 783 782 781 780 779 778 776 775 772 770 768 767 765 764 762 761 760 759 758 757 755 753 751 748 745
699 702 706 710 713 717 720 723 726 729 731 734 737 739 741 744 746 746 747 749 751 753 755 756 757 758 759 762 764 766 767 767 767 769 771 773 774 774 776 777 779 781 781 781 781 782 783 784 783 783 784 784 784 784 784 784 784 784 783 782 782 781 779 779 778 777 775 773 771 769 767 765 764 762 761 760 759 758 756 754 752 750 747 745 742
698 702 706 709 713 716 720 723 725 728 731 734 737 739 741 743 745 746 747 749 751 752 754 755 756 757 759 761 763 764 765 765 766 768 769 771 772 773 775 776 778 780 780 779 780 781 782 782 782 782 783 783 783 783 784 783 783 782 781 781 780 779 778 777 776 775 773 771 769 767 765 764 763 761 760 759 757 756 754 751 749 747 744 741 738
697 701 705 708 712 715 719 722 725 727 730 733 736 738 740 742 744 745 747 749 750 751 752 754 755 756 757 758 760 762 763 764 765 766 768 770 771 772 773 775 777 777 777 777 779 779 780 780 781 781 782 782 782 783 782 782 781 781 780 779 778 777 777 776 775 773 771 769 767 765 764 763 762 761 759 757 756 753 751 749 746 743 741 737 734
696 699 702 706 710 714 717 721 724 727 730 733 735 737 739 740 742 744 746 747 749 750 751 752 753 754 755 757 759 760 762 764 765 765 766 768 769 770 772 774 774 774 774 776 777 778 779 780 780 781 781 781 781 782 781 780 780 779 778 777 777 776 776 775 773 772 770 768 766 764 763 762 761 759 757 755 753 751 749 746 744 740 738 735 731
696 699 701 704 709 713 716 720 723 726 729 732 734 736 737 739 741 743 744 746 747 748 749 750 751 753 754 755 757 759 761 763 764 764 765 766 767 769 771 772 771 772 774 775 777 777 778 779 779 779 779 779 780 780 780 779 778 778 777 776 776 775 774 773 772 770 768 767 765 764 762 761 759 757 755 753 751 749 747 745 742 738 735 733 729
696 699 701 704 708 713 716 720 723 725 728 730 732 734 736 737 739 741 743 744 745 747 748 749 750 751 752 754 756 759 761 762 763 764 766 766 766 767 769 769 770 772 774 775 776 777 778 778 778 778 778 778 778 778 778 778 778 777 776 775 774 773 772 770 769 768 767 766 764 763 761 760 758 756 754 751 749 747 745 743 740 737 734 731 727
696 699 700 703 707 712 716 720 722 725 727 729 730 732 733 736 738 740 742 743 744 746 747 747 749 750 751 753 755 758 760 760 761 763 764 764 764 765 766 768 770 771 773 774 775 777 777 777 777 776 776 776 775 774 774 775 775 775 775 774 773 771 770 768 767 766 765 764 763 762 760 758 757 755 752 750 747 746 744 741 738 736 733 730 726
695 698 699 702 706 710 715 719 722 724 726 727 729 731 733 735 738 740 741 743 744 745 746 747 747 748 749 751 754 756 757 758 758 759 760 761 761 763 765 767 769 770 772 773 774 775 775 774 774 773 773 773 772 772 772 772 773 773 772 771 770 769 768 767 766 765 765 764 762 761 759 757 756 753 751 748 746 744 742 739 737 734 731 727 724
694 696 698 701 705 709 714 717 720 723 724 725 728 730 732 735 737 739 740 742 743 744 745 746 747 748 749 751 752 754 754 755 756 757 758 759 761 762 764 767 768 769 771 772 773 773 772 772 772 771 771 771 770 771 772 772 771 771 770 769 768 767 766 766 765 764 764 762 761 760 758 757 755 752 750 748 745 743 740 737 735 732 729 726 723
693 695 697 700 705 709 712 715 718 721 722 724 726 728 730 733 735 737 739 740 741 742 743 744 746 747 749 751 751 752 753 754 755 756 756 758 760 762 764 766 767 768 770 771 771 770 770 770 770 769 770 770 769 770 771 771 771 770 769 768 767 766 766 765 764 764 763 761 760 759 757 756 754 752 749 747 744 742 739 736 733 731 728 726 723
693 695 697 701 705 709 712 714 717 719 720 723 724 726 728 730 732 735 737 738 740 741 742 743 745 747 748 750 750 751 752 752 753 754 756 758 759 761 763 765 766 767 768 769 769 768 767 768 768 768 768 769 768 769 770 771 771 770 768 767 766 765 765 765 764 763 762 760 759 758 756 755 753 751 748 746 744 741 738 735 733 730 728 725 722
695 696 698 701 705 709 712 715 717 718 720 722 723 724 726 728 730 732 735 737 738 740 741 743 744 746 747 748 749 749 750 751 752 754 756 757 759 761 763 764 766 766 767 767 767 766 765 766 767 767 767 768 769 768 769 770 771 770 768 767 766 765 764 764 763 762 761 759 758 756 755 754 752 750 748 745 743 741 738 734 732 730 728 725 721
697 698 700 703 706 709 712 714 716 717 719 720 722 724 726 728 730 731 733 735 736 739 741 743 745 746 747 747 748 748 749 751 752 754 756 757 759 761 763 764 765 765 765 766 767 766 765 765 766 767 767 768 769 768 768 769 770 769 768 766 766 765 764 763 762 761 760 759 757 756 755 754 752 750 748 745 743 740 737 734 732 729 727 724 721
698 700 702 704 707 709 711 714 715 717 719 720 722 724 725 727 729 730 731 733 734 737 741 743 744 745 746 746 747 749 750 751 753 754 756 757 759 761 762 763 763 763 763 764 765 765 765 765 766 766 767 768 768 768 768 769 769 768 767 766 765 764 763 762 761 761 760 758 757 756 755 753 751 750 747 745 743 740 737 734 732 729 726 724 721
700 701 703 705 707 709 712 714 716 718 719 721 723 724 726 727 728 729 730 732 734 736 740 741 742 744 746 747 748 749 750 751 753 754 756 758 759 761 761 761 761 760 761 762 764 764 764 765 765 766 767 767 767 768 768 769 768 767 767 766 765 764 763 762 761 760 759 758 757 755 754 753 751 749 747 745 742 740 737 735 732 729 726 724 721
702 703 704 707 709 710 713 715 716 718 720 722 723 725 726 727 728 728 730 732 734 735 737 739 741 743 745 746 748 748 750 751 753 754 756 757 758 759 760 760 760 760 760 762 763 763 763 764 764 765 766 766 766 767 768 768 767 766 765 765 764 763 762 761 760 760 759 757 756 755 754 752 750 749 747 745 742 740 738 735 732 729 726 723 720
703 705 706 708 710 712 713 715 717 719 720 722 723 725 726 727 727 728 730 732 733 735 737 739 741 742 744 745 746 747 749 751 752 753 754 756 757 758 758 758 759 760 760 761 762 762 763 763 763 764 765 765 766 767 767 767 766 765 765 764 762 761 761 760 759 759 758 757 756 754 753 752 750 749 747 745 742 740 738 735 732 729 726 723 720
705 707 709 710 711 713 715 716 718 719 720 722 723 724 726 727 728 729 730 732 734 735 737 739 740 741 743 744 744 746 748 749 750 751 752 753 755 756 756 757 757 759 760 760 760 761 762 762 762 763 764 765 766 766 766 765 765 764 763 762 761 760 760 759 759 758 757 756 756 754 753 752 750 749 747 745 743 741 738 735 732 729 727 723 721
706 708 710 711 713 714 715 717 718 719 721 723 724 726 728 729 730 731 732 733 734 735 737 738 739 740 742 742 743 744 746 747 747 749 750 751 753 754 755 755 756 757 758 758 758 759 759 759 761 762 763 764 765 765 764 764 763 763 762 761 760 760 759 758 758 758 757 756 755 754 753 752 750 749 747 745 743 740 737 735 732 729 727 724 721
706 709 710 712 713 714 716 718 719 720 722 723 725 727 729 731 732 734 734 734 734 735 736 738 739 740 741 741 742 744 744 745 746 747 748 749 751 752 753 754 755 756 756 756 756 757 758 758 759 760 761 762 763 763 763 763 762 761 761 760 759 759 758 758 757 757 757 756 755 754 753 752 750 748 746 744 742 740 737 735 732 730 727 724 722
706 708 710 712 713 715 717 718 719 721 722 723 725 726 728 731 733 734 734 734 735 735 736 737 738 739 740 741 742 743 743 744 745 746 747 748 749 749 751 752 753 754 755 756 756 757 757 757 758 759 760 761 762 762 761 761 761 760 760 759 759 758 758 757 757 757 756 756 755 754 753 752 750 748 746 744 742 740 737 735 733 730 728 725 722
706 708 710 711 713 715 716 718 719 721 722 723 725 726 728 730 731 732 732 734 735 735 735 736 737 738 739 740 741 742 742 743 743 744 745 746 747 748 749 751 752 753 754 755 755 756 757 757 757 758 759 760 760 760 760 760 760 759 759 759 758 758 758 757 757 757 756 756 755 754 753 751 749 747 745 744 742 740 737 735 733 731 729 726 723
707 708 710 711 712 714 716 717 719 720 722 723 725 726 728 729 730 730 732 733 733 734 735 735 735 736 737 738 740 740 741 741 742 743 744 745 746 748 749 750 751 752 753 753 754 755 755 756 756 757 758 758 759 759 759 759 758 758 758 758 758 758 757 757 757 756 756 755 755 754 752 751 749 747 745 744 742 740 738 736 734 732 729 727 725
708 710 711 712 713 715 716 718 719 720 722 724 724 725 726 728 729 730 731 731 732 733 734 734 734 735 735 736 738 738 739 739 740 740 742 743 745 746 748 749 749 750 751 752 753 753 754 755 755 755 756 757 757 758 758 757 757 757 757 757 757 757 757 757 756 756 756 755 754 753 752 751 749 747 746 744 742 740 738 736 734 732 730 728 726
708 710 711 712 714 715 717 718 720 721 722 723 723 724 725 727 728 729 730 731 731 732 732 733 734 734 734 734 735 736 736 737 737 739 740 742 743 744 746 747 748 749 749 750 751 752 752 753 753 754 755 756 756 756 756 756 756 756 756 756 756 756 756 756 756 756 755 755 754 753 752 751 749 747 746 744 742 741 739 737 735 733 731 729 727
709 711 712 713 714 716 717 718 719 720 721 721 722 723 725 726 727 728 729 729 730 730 730 731 732 732 732 733 733 734 735 735 736 737 738 740 741 742 744 746 747 747 747 748 749 750 750 751 752 752 753 754 754 755 755 755 755 755 755 755 755 755 754 754 754 755 754 754 753 753 752 750 749 747 746 744 743 741 739 737 736 734 732 730 728
709 710 712 712 713 714 715 716 718 719 719 720 722 723 724 725 727 727 727 728 728 729 729 729 729 730 730 731 732 733 733 734 734 735 736 738 740 741 742 744 745 745 746 747 747 748 748 749 750 751 752 752 753 753 754 754 754 755 755 754 754 753 753 753 753 753 753 752 752 752 751 750 749 747 746 744 743 741 740 738 737 735 733 731 729
709 709 710 711 712 713 714 716 717 718 719 720 721 723 724 725 725 726 726 726 727 727 728 728 728 729 729 729 730 731 731 732 732 733 734 736 738 739 740 742 743 743 744 745 745 746 747 748 748 749 750 751 751 752 752 752 753 753 753 753 752 752 752 752 751 751 751 751 751 751 751 750 748 747 746 744 743 741 740 739 737 735 733 732 730
709 709 710 711 712 713 714 715 716 717 719 720 721 722 723 724 724 724 724 725 726 726 727 727 728 728 728 728 729 729 730 730 731 731 733 734 736 737 738 740 741 741 742 743 743 744 745 746 746 748 748 749 749 750 750 751 751 751 751 751 751 751 751 750 750 750 750 750 750 750 750 749 748 747 746 744 743 742 741 740 738 736 734 732 731
Wind_Speed
26 25 25 25 24 24 24 23 23 23 23 23 22 21 22 21 18 17 17 17 15 15 15 15 14 13 12 11 11 11 11 11 11 11 11 11 10 10 10 11 11 11 10 10 11 11 11 12 13 12 13 13 13 12 11 10 10 11 11 12 13 12 11 13 13 14 17 18 16 16 16 17 17 17 17 18 17 17 17 18 18 18 19 19 19
27 26 25 25 24 24 25 26 26 26 24 23 23 23 24 23 20 18 17 17 16 15 15 16 16 15 13 12 12 12 11 12 12 11 12 12 11 11 11 12 12 12 11 11 11 12 12 13 13 13 14 14 13 12 11 10 11 12 11 11 13 13 11 13 14 14 16 18 19 18 16 15 16 17 17 18 19 19 19 18 18 18 19 19 19
27 25 24 24 25 27 27 27 27 26 25 25 25 24 24 23 22 20 18 17 18 17 16 17 18 17 15 14 14 14 13 12 13 13 13 13 12 12 12 12 13 13 12 12 12 12 13 14 14 14 14 14 13 12 12 12 12 13 13 12 13 14 13 13 14 15 16 17 18 19 19 17 17 17 17 18 18 19 19 19 18 18 18 19 20
26 25 25 26 28 28 27 27 28 28 28 28 26 23 21 20 21 20 18 16 18 18 17 18 19 18 16 15 17 18 17 15 15 15 15 14 14 14 13 14 14 14 13 13 12 13 14 14 15 14 14 14 13 12 13 13 13 13 14 13 13 15 14 13 14 15 15 16 16 18 19 20 19 18 18 18 18 18 18 19 19 19 19 19 20
27 26 27 28 28 28 28 28 29 30 30 27 24 20 17 17 19 20 18 17 18 18 18 18 19 19 18 17 19 21 20 19 18 17 16 16 15 15 14 15 15 15 14 14 13 14 14 15 15 15 15 15 14 14 14 14 14 14 15 14 14 14 14 15 15 15 15 16 17 17 18 19 20 20 19 19 19 18 18 18 18 19 19 20 20
28 27 28 28 28 29 30 29 31 33 29 21 20 21 18 16 17 18 18 18 17 17 19 20 21 23 23 22 22 22 21 20 20 19 17 16 16 15 15 15 15 15 15 14 14 14 15 16 16 16 16 16 16 15 15 15 15 15 15 14 15 15 15 15 15 14 15 16 17 18 18 18 19 19 19 18 19 20 19 18 18 18 19 20 21
26 26 26 26 27 29 30 31 30 25 18 17 20 23 19 15 16 18 19 20 22 26 28 26 25 26 27 25 24 22 22 21 21 20 18 17 16 16 16 16 15 16 16 15 14 14 15 17 17 17 17 16 16 16 16 16 15 15 14 14 14 14 15 16 15 14 15 15 16 18 18 18 18 19 19 19 19 19 19 19 20 20 20 21 21
23 23 23 22 23 25 26 24 17 15 21 24 24 22 18 17 19 22 25 28 34 39 35 29 28 29 30 29 26 22 22 22 21 21 20 18 17 16 16 16 16 16 16 15 15 14 16 17 17 17 16 15 16 17 17 16 16 15 15 15 15 15 16 17 16 15 15 15 16 16 17 18 18 18 19 18 18 19 19 20 22 22 22 22 21
20 20 19 18 17 18 18 14 14 24 30 30 25 22 24 24 25 29 34 39 42 40 35 32 33 34 33 32 28 24 24 24 23 24 23 21 19 18 17 17 17 17 16 16 16 15 15 16 16 16 16 17 18 19 18 18 17 17 16 16 16 16 17 18 17 15 15 15 16 15 15 17 18 18 19 18 19 20 20 20 21 21 22 23 23
18 18 18 16 13 14 16 17 22 30 32 30 28 30 33 36 39 42 43 42 40 37 35 35 35 33 31 30 29 27 26 26 26 26 25 23 21 19 17 17 17 17 17 17 16 16 16 16 17 17 18 20 20 19 18 20 20 20 19 18 18 17 17 18 18 17 16 16 17 16 16 17 18 19 20 21 21 21 20 19 19 20 21 22 22
17 17 17 16 15 17 20 23 27 32 34 35 38 40 42 43 45 46 43 41 41 40 38 38 36 32 28 27 28 27 27 27 27 27 26 25 24 21 19 19 18 18 18 18 18 19 18 17 17 19 19 18 17 16 17 19 21 20 19 19 20 20 18 18 18 19 18 18 20 19 18 19 19 20 22 23 23 21 19 18 19 20 19 19 19
18 17 17 17 18 21 23 26 30 35 37 38 41 45 48 46 42 42 44 44 44 42 40 38 33 28 25 24 26 27 26 27 27 27 26 26 24 22 21 21 18 18 20 20 19 19 18 16 16 18 16 14 15 15 13 15 17 19 19 19 21 22 22 20 19 18 17 18 20 20 19 19 20 20 21 22 23 21 20 19 20 21 20 19 20
17 17 17 18 20 23 25 27 31 36 39 40 42 44 47 46 43 42 44 45 44 41 36 30 25 23 23 24 24 23 24 26 27 26 25 25 23 21 22 21 19 19 22 21 18 17 17 15 14 14 13 14 15 14 13 13 15 18 19 19 20 21 21 21 20 19 17 16 17 18 18 18 19 20 21 22 23 22 19 19 21 23 23 22 24
16 17 18 20 22 24 26 26 27 32 35 37 38 39 41 43 44 42 40 41 41 35 27 23 21 20 21 23 22 21 21 24 27 26 24 24 22 20 20 21 21 22 23 23 20 17 15 12 11 12 13 12 12 14 14 13 13 15 16 17 18 19 19 20 20 18 14 13 14 17 17 17 19 20 21 21 22 22 20 20 22 25 26 26 26
17 18 19 22 24 25 25 25 25 27 30 29 30 31 33 35 36 34 30 29 30 26 21 20 20 20 22 23 21 18 18 22 25 24 23 23 22 20 18 19 21 22 23 23 19 15 13 11 11 12 11 9 11 15 15 13 13 14 15 16 17 18 18 19 18 16 14 13 15 16 17 18 20 22 23 22 22 22 21 21 24 26 26 25 25
19 21 22 23 25 24 24 25 24 24 25 25 24 26 27 27 27 25 23 21 21 20 18 18 19 21 23 23 20 18 20 21 21 21 23 24 23 19 16 17 19 20 18 17 16 15 15 13 11 11 10 9 13 16 15 15 15 14 14 16 17 18 18 18 18 18 18 18 18 18 19 22 23 25 24 22 21 20 19 21 22 23 23 23 23
21 23 23 23 23 22 23 24 23 22 23 23 23 23 23 23 24 24 23 22 21 20 18 18 19 21 22 23 23 23 24 23 21 22 25 25 20 16 15 15 16 16 15 16 18 19 18 14 11 10 9 9 13 15 14 15 14 12 14 17 17 17 18 17 17 18 18 19 21 22 23 23 22 22 22 20 18 17 16 18 19 20 20 17 17
22 22 22 22 22 22 23 23 22 22 23 23 22 21 21 23 24 24 23 22 21 21 20 19 18 19 21 24 26 24 22 21 24 26 27 23 18 16 15 14 13 15 16 16 16 17 16 14 12 9 8 10 13 14 13 13 12 12 14 16 15 17 18 16 17 18 17 19 21 22 22 21 21 21 21 19 18 17 16 18 19 20 21 18 18
21 21 21 21 21 22 23 23 23 23 23 22 20 19 19 21 22 22 22 21 20 20 21 19 18 19 19 21 25 24 21 21 25 28 26 23 20 17 14 13 13 15 14 12 10 10 11 11 10 9 9 12 13 12 12 12 12 11 12 13 15 17 17 15 16 16 16 18 19 18 19 19 18 19 20 19 19 18 18 19 19 21 22 23 24
20 21 21 21 21 21 22 23 23 23 22 21 19 18 18 18 18 19 19 19 18 19 20 19 18 19 18 19 22 23 21 20 24 26 24 24 22 18 15 13 13 12 9 8 8 8 7 6 7 8 10 11 12 11 11 13 12 10 10 13 15 16 15 15 15 15 16 17 18 18 18 17 17 18 19 19 19 18 19 19 19 21 22 24 26
20 21 21 21 21 21 21 22 22 22 21 20 19 18 16 16 16 16 15 15 16 17 18 18 18 19 19 19 20 20 20 20 21 24 24 22 21 18 15 12 11 10 8 8 8 6 5 5 6 7 8 9 10 10 11 12 11 9 9 13 16 16 16 15 14 13 15 17 17 17 16 17 18 18 19 20 19 19 19 19 19 21 22 22 24
21 21 21 20 20 20 19 20 21 20 20 19 18 17 16 15 15 14 13 13 14 15 16 18 19 19 19 19 18 17 19 19 18 19 21 21 19 16 13 11 12 11 9 7 7 5 5 6 7 7 7 8 9 10 10 10 9 8 10 13 15 15 14 13 12 12 14 14 15 15 15 16 18 18 19 20 18 17 18 19 19 20 21 21 21
22 21 20 20 20 19 19 20 19 18 18 18 18 17 17 15 14 13 13 13 13 14 16 17 18 18 18 18 17 15 16 18 17 17 18 19 17 14 12 13 13 11 8 6 5 4 4 5 6 7 7 7 8 8 8 8 8 8 9 10 12 12 11 11 12 13 12 12 13 14 16 17 18 19 19 18 17 17 18 20 20 20 20 20 21
21 20 19 19 19 18 18 19 19 18 19 19 18 17 16 15 13 13 13 13 13 14 15 16 16 16 16 16 15 13 11 12 15 17 17 15 14 13 13 13 12 10 6 3 2 3 4 5 7 7 6 6 7 7 7 8 8 8 9 9 10 10 9 10 12 12 11 11 12 14 16 17 17 17 17 17 18 19 20 20 19 19 20 21 22
20 20 20 19 18 18 19 19 18 18 19 19 17 17 16 14 13 13 13 13 13 14 14 14 14 14 14 14 13 11 10 9 12 16 17 16 15 14 13 14 13 9 5 3 3 5 6 7 7 6 6 6 6 5 6 8 8 9 9 9 9 8 9 10 11 11 10 11 12 13 14 15 15 16 17 18 19 19 19 18 18 19 20 20 21
20 20 20 19 19 19 18 18 18 18 19 17 16 15 16 14 13 13 13 13 13 13 13 13 14 14 13 12 10 10 10 10 9 12 17 18 17 14 14 14 10 5 3 5 6 7 7 7 6 5 6 6 5 5 7 10 11 10 9 7 7 8 8 8 9 9 10 11 12 12 13 14 16 17 17 18 18 17 17 18 19 19 19 19 20
18 18 19 19 18 18 18 18 18 18 18 17 15 15 14 13 12 12 12 11 12 12 12 12 13 13 12 12 10 9 9 10 10 11 14 16 16 15 14 11 6 3 3 5 6 5 6 6 5 5 6 6 6 8 10 11 10 9 8 7 8 8 7 8 8 9 10 11 11 13 14 15 16 17 16 16 16 16 16 17 18 19 19 19 21
16 17 18 18 17 17 17 18 18 18 18 16 14 13 13 11 11 10 9 9 10 11 12 13 12 11 11 10 9 9 9 10 11 12 13 14 15 14 11 7 5 4 5 6 5 4 5 5 5 7 8 7 7 8 9 10 9 8 8 7 7 8 8 8 9 8 8 10 11 13 14 15 15 16 15 16 16 15 16 17 17 18 19 19 21
15 15 16 16 16 16 17 18 18 17 17 15 13 12 12 11 10 8 7 9 10 9 9 9 8 9 10 9 9 9 10 12 14 15 15 15 14 12 9 7 7 7 8 9 7 6 7 7 8 9 10 10 9 9 10 10 9 9 8 7 7 8 7 8 9 8 9 10 12 13 14 14 14 15 15 15 15 15 16 17 17 18 19 19 20
14 14 14 14 15 16 17 17 17 16 15 14 13 12 12 11 11 8 6 10 13 13 11 7 3 3 5 8 11 11 9 10 13 13 13 14 12 10 9 9 10 10 10 10 9 8 9 10 9 9 9 10 10 10 10 9 8 8 7 7 7 8 7 8 9 9 10 11 12 13 13 13 14 14 14 15 16 16 16 16 16 17 18 19 20
13 13 13 13 15 15 16 17 16 15 14 13 12 12 10 9 8 8 8 9 11 14 16 13 9 6 3 5 10 11 7 7 8 8 10 12 10 9 9 11 11 11 10 9 9 9 9 9 9 9 8 9 10 10 9 8 7 6 7 8 8 8 8 8 8 9 11 12 12 12 12 12 13 14 14 15 16 16 16 16 15 16 17 18 19
12 12 12 13 14 14 14 15 15 14 14 12 11 11 9 7 6 6 8 9 8 9 11 11 12 11 8 6 8 9 7 7 7 8 10 10 9 9 10 10 11 10 9 8 8 8 8 8 9 8 8 9 10 10 10 9 7 6 7 8 8 8 8 7 8 9 10 11 10 11 11 12 13 14 14 15 15 16 16 16 15 16 17 17 17
12 12 11 12 13 12 12 12 12 13 12 11 10 9 8 8 7 7 7 7 7 6 6 7 9 11 12 11 10 8 7 8 9 10 11 10 10 11 11 11 10 9 8 7 7 8 7 8 9 9 8 10 10 10 10 11 9 8 7 8 8 8 8 8 8 9 9 9 10 11 11 12 13 14 14 14 14 15 15 15 15 15 17 17 17
10 10 10 11 11 11 10 10 10 10 10 10 10 9 9 8 8 9 9 8 6 5 5 6 8 10 12 12 9 7 9 10 10 10 10 10 10 11 11 10 9 7 6 5 5 7 7 8 9 9 9 10 11 11 11 11 10 8 8 8 8 8 8 8 8 8 8 9 10 10 10 12 13 13 14 14 14 14 15 15 15 15 16 17 17
9 9 10 10 9 9 9 8 8 8 8 8 8 8 8 8 8 8 8 7 7 8 7 6 7 8 9 10 10 10 11 11 11 10 10 10 11 11 10 8 6 5 5 4 4 7 8 8 9 9 9 9 10 11 10 10 9 8 7 8 8 8 8 7 7 7 8 9 9 10 11 12 12 13 14 14 14 14 14 14 15 16 16 16 17
9 10 10 9 8 8 8 7 6 6 6 6 6 5 6 7 8 8 8 7 8 10 11 10 11 11 10 11 12 12 12 11 11 11 10 10 11 10 7 6 6 5 4 4 6 7 8 8 8 9 9 9 10 10 10 9 8 7 7 8 8 8 7 6 6 6 8 9 9 9 10 11 12 12 13 14 14 14 14 15 15 16 16 17 18
10 10 10 9 8 9 8 8 7 6 5 4 3 3 4 5 6 7 8 8 9 10 12 12 13 12 11 11 12 13 13 12 12 12 11 11 11 8 5 5 5 4 5 6 7 7 8 8 8 9 9 9 9 9 9 8 7 7 7 7 6 6 6 6 6 7 8 9 9 9 10 11 11 12 13 13 14 14 14 15 16 16 17 18 18
10 10 11 11 9 9 9 8 6 5 4 4 4 4 5 5 6 7 7 8 8 8 9 10 10 9 10 13 14 14 14 14 13 12 11 11 11 8 6 5 4 5 6 6 6 7 8 8 8 8 9 9 9 9 9 8 7 7 7 6 6 6 6 7 7 7 7 9 9 9 10 11 11 12 13 13 13 13 14 14 16 16 17 18 17
10 10 11 11 9 7 8 7 6 5 6 6 6 6 6 6 6 6 6 5 5 4 4 6 7 8 11 15 16 16 15 13 12 11 11 11 10 8 7 5 5 6 6 6 6 6 7 8 8 8 9 9 9 9 9 8 7 7 7 7 6 6 5 5 5 6 7 8 9 9 10 11 11 12 13 13 13 14 14 14 15 16 16 17 17
10 10 10 10 9 8 8 8 8 8 7 7 7 7 7 5 5 4 4 3 3 4 5 6 7 8 11 15 18 17 14 11 10 11 11 11 10 9 8 7 7 7 7 6 6 6 7 8 8 8 8 9 10 9 8 7 7 7 6 6 6 5 5 5 5 6 7 8 8 9 10 10 11 12 12 12 13 14 14 14 14 15 16 16 17
12 12 11 11 11 10 10 9 9 8 7 7 7 6 5 5 4 3 3 4 5 6 6 6 6 8 11 14 17 16 12 9 9 10 10 10 10 10 9 8 8 8 8 8 8 8 8 8 8 8 9 10 9 8 7 7 7 7 6 6 5 5 5 5 5 6 7 8 8 9 9 10 11 12 12 13 13 13 13 13 14 15 15 15 16
14 14 13 13 12 11 10 10 9 8 7 7 6 5 5 4 3 3 3 4 4 5 5 5 6 7 9 13 15 15 11 8 9 10 10 10 11 10 10 10 9 9 9 8 8 9 9 9 9 9 10 10 9 7 6 6 6 6 6 5 5 5 5 5 5 5 7 8 8 9 10 10 12 12 12 13 13 13 13 13 13 14 15 15 15
15 14 14 13 12 11 10 9 9 8 7 7 7 6 5 4 3 3 4 4 4 5 5 6 7 7 7 11 15 15 11 9 9 10 10 11 11 11 11 10 9 8 8 7 7 8 8 8 8 8 8 8 7 6 6 6 6 6 6 5 5 5 5 5 5 6 7 7 8 9 10 10 11 11 11 12 12 13 13 13 13 14 14 15 15
16 15 14 13 13 11 10 9 9 8 8 8 7 7 6 5 4 4 4 5 5 5 5 6 7 7 7 10 14 14 12 10 11 10 10 11 10 10 9 9 7 7 7 6 6 7 7 7 8 7 7 7 6 5 6 5 5 5 5 5 5 5 5 6 6 6 6 7 8 9 9 10 10 11 11 11 12 13 13 12 13 14 14 14 14
13 13 13 13 12 11 10 9 9 9 9 8 8 7 6 5 4 4 5 5 5 5 5 6 7 6 6 8 11 13 12 12 12 11 11 12 11 9 9 8 7 7 7 7 7 8 8 8 8 7 7 7 6 5 5 5 5 5 5 5 5 5 5 5 5 6 6 7 8 9 9 10 10 10 11 12 12 12 12 12 13 13 13 14 14
12 11 11 10 11 10 9 9 9 9 9 8 8 7 6 5 5 6 7 7 7 7 6 6 7 8 8 8 10 12 13 14 14 13 13 13 12 10 9 9 8 7 7 7 8 8 8 8 8 8 7 7 5 5 5 5 5 5 5 5 5 5 5 5 5 6 6 7 8 9 9 10 10 10 10 11 11 11 12 12 12 13 13 13 14
11 10 9 9 10 9 9 9 10 9 9 8 7 6 6 6 6 7 7 6 5 6 6 7 7 8 8 9 10 11 12 13 14 13 13 13 13 11 10 9 9 8 8 8 8 9 9 9 8 8 7 6 5 5 5 5 4 4 4 5 5 5 6 6 5 5 6 7 8 8 9 9 10 10 10 11 11 11 12 12 11 12 13 13 13
10 9 9 10 9 9 9 10 10 9 8 7 6 6 6 6 6 6 6 5 5 6 7 7 7 8 8 8 9 9 10 11 12 12 12 13 12 11 10 10 10 9 9 9 9 9 9 10 9 8 8 7 6 6 6 5 5 5 4 4 5 7 9 9 7 6 6 7 7 8 9 9 10 10 10 10 11 11 12 12 11 12 12 12 13
9 9 9 9 9 8 8 9 9 8 7 7 6 6 5 5 5 5 5 5 5 7 8 8 8 8 9 9 9 10 10 11 11 12 12 13 12 12 12 11 10 10 10 10 10 10 10 10 10 9 9 8 7 6 6 6 5 4 4 5 7 9 9 9 8 8 7 6 7 9 9 9 9 9 9 10 10 10 11 11 11 12 11 11 12
7 7 7 7 7 6 7 7 7 7 6 6 7 6 6 6 6 6 5 5 6 7 8 9 9 10 10 10 11 11 11 11 11 11 12 13 13 12 12 12 11 11 10 10 10 10 10 10 10 10 10 9 8 7 7 7 5 5 5 6 7 7 6 7 8 8 6 5 7 8 8 8 8 8 9 9 9 9 10 10 11 11 10 10 11
6 6 5 5 5 6 6 6 6 6 6 6 6 7 7 6 6 5 5 5 6 7 8 8 10 11 12 12 12 11 11 12 11 11 12 13 13 13 13 12 12 12 11 10 10 11 11 11 11 11 11 10 9 8 8 7 7 8 8 6 4 3 5 6 7 7 6 5 5 7 8 8 7 8 8 8 9 9 10 10 10 10 10 9 10
Wind_Direction
195 196 196 197 197 195 196 197 199 202 204 206 203 202 208 212 205 200 206 205 195 193 197 197 196 198 205 214 217 220 224 227 231 232 232 235 239 247 253 253 252 251 252 256 258 259 260 261 262 261 260 260 261 264 265 266 268 271 273 274 276 278 275 273 277 286 292 293 292 290 290 289 287 283 282 283 283 283 279 273 271 271 272 274 276
195 195 194 193 193 193 193 194 200 204 204 202 198 199 207 210 203 199 203 203 198 197 200 202 201 201 203 212 219 222 224 229 235 236 237 240 240 244 250 250 248 248 250 253 254 257 260 260 261 261 259 260 259 262 266 269 271 273 271 270 273 276 273 269 271 278 288 293 295 294 292 288 285 283 282 283 284 283 281 278 275 273 272 272 273
195 192 190 190 191 192 192 195 200 202 200 200 198 196 199 201 203 204 200 200 205 207 210 213 213 209 207 213 224 229 229 231 234 236 238 240 240 243 247 248 248 247 247 249 252 256 259 259 259 260 259 258 255 257 265 269 271 272 271 269 269 270 271 266 264 270 281 288 290 293 295 293 289 287 285 283 281 280 281 283 280 275 273 273 274
196 189 188 191 192 191 193 196 198 198 199 201 198 192 188 189 199 202 194 195 205 208 213 218 217 212 207 215 232 238 235 232 232 235 236 237 239 242 244 247 249 248 246 247 251 256 258 257 257 258 258 258 257 259 264 270 274 274 274 275 271 269 269 265 260 262 272 279 279 282 288 291 292 290 289 287 284 280 282 283 279 275 275 277 279
197 190 190 193 191 190 194 196 198 199 200 199 191 181 175 179 189 191 186 192 202 205 210 213 213 210 203 205 223 233 234 230 231 232 234 236 238 240 244 247 247 247 245 245 249 255 258 258 259 259 260 260 260 263 269 275 280 280 279 282 282 276 270 266 265 261 263 270 274 275 277 282 287 289 290 289 288 288 286 281 277 277 279 283 284
199 193 194 194 190 191 195 198 200 201 198 189 172 164 166 174 179 179 183 193 199 203 207 210 214 216 211 203 206 221 230 230 230 230 232 236 238 239 242 244 245 247 246 246 250 255 259 260 260 260 261 262 264 268 274 280 283 283 282 285 288 285 275 269 269 265 264 268 273 276 276 276 280 286 288 286 288 292 291 284 280 280 285 289 290
200 197 198 195 191 192 197 199 201 197 177 153 147 154 161 165 170 177 185 194 203 206 207 212 220 227 225 213 202 208 222 226 227 229 231 234 237 239 241 243 246 247 248 251 253 256 260 262 262 262 262 264 269 273 277 280 283 285 285 288 289 286 281 278 275 271 271 274 276 278 279 277 278 284 287 285 285 288 287 286 287 287 289 293 293
198 198 199 197 194 195 197 197 185 148 137 143 148 158 169 173 183 196 202 208 212 210 208 213 220 225 228 223 211 206 214 219 221 225 228 231 234 238 243 246 248 250 252 254 254 257 262 263 265 266 266 267 270 273 278 282 284 283 284 287 288 287 287 286 283 278 277 277 279 281 282 282 282 285 288 286 286 289 289 289 290 291 293 294 293
194 195 197 196 191 188 187 176 136 125 137 147 152 168 186 191 200 214 217 215 212 210 210 214 218 220 224 224 218 210 212 216 218 223 228 230 231 238 245 249 251 254 256 257 257 259 261 264 267 268 270 271 269 271 280 287 285 280 277 280 285 288 290 290 287 283 279 278 281 282 282 285 286 288 290 290 291 295 297 294 291 293 297 296 292
188 189 191 192 190 179 168 149 132 135 147 158 168 186 198 201 207 217 219 213 208 209 214 216 216 218 222 225 223 217 216 220 223 225 228 228 229 236 245 249 251 255 258 262 264 265 267 271 273 272 273 272 269 274 285 286 283 280 275 273 277 282 286 288 286 282 280 281 283 282 282 286 289 291 293 295 298 301 300 296 294 298 300 297 294
183 187 191 191 189 179 162 147 144 151 164 177 188 199 206 206 208 213 214 211 209 212 217 217 217 217 217 221 224 221 221 225 227 228 228 229 231 236 243 248 250 253 259 264 266 270 275 274 273 276 277 272 274 285 289 284 285 284 275 269 274 279 280 280 279 280 282 285 285 285 285 288 290 291 292 297 302 304 303 299 297 299 299 297 298
184 192 196 186 176 174 166 158 160 165 172 182 192 203 210 210 210 210 212 212 212 214 217 218 217 214 211 216 223 224 226 229 230 230 230 231 233 236 242 248 250 252 258 264 267 272 276 274 275 281 281 277 283 288 285 286 291 289 280 275 278 282 282 280 277 277 280 283 284 286 287 289 291 290 292 298 303 305 304 300 296 296 295 293 294
184 190 191 177 171 177 175 168 168 171 176 184 192 199 206 210 212 213 213 215 214 214 215 216 214 212 212 217 223 226 229 232 231 231 233 233 234 235 239 243 246 251 256 261 266 270 272 272 275 279 283 289 287 279 280 290 288 279 277 280 282 284 285 285 282 280 280 279 280 283 287 290 290 289 293 298 300 301 301 298 296 296 294 292 292
181 183 180 171 173 181 179 170 168 174 180 185 190 196 204 210 214 216 216 216 216 215 214 213 213 215 216 218 223 225 228 233 233 232 231 232 234 237 240 242 245 250 256 261 264 265 264 262 266 276 287 291 278 274 286 290 278 270 273 279 281 282 283 283 281 280 276 269 273 281 285 287 287 289 295 299 298 297 297 294 293 295 295 294 293
175 176 173 173 177 182 179 172 171 176 180 184 189 197 204 210 214 216 215 217 218 216 216 214 212 216 219 219 220 221 224 232 235 231 227 229 234 240 242 243 247 252 256 259 259 256 256 263 272 281 287 277 265 278 288 279 268 273 277 277 279 281 282 280 276 276 277 276 278 284 287 288 288 290 295 298 295 294 294 292 291 292 293 293 291
171 169 169 174 180 180 175 171 174 181 184 187 193 200 205 209 213 214 216 220 219 216 218 217 216 221 224 221 220 221 224 230 232 228 225 226 231 237 242 244 247 248 247 246 248 252 260 271 277 277 275 266 266 277 279 271 272 276 274 275 279 282 283 282 278 279 285 288 289 290 292 293 292 292 296 298 297 294 293 291 289 288 288 288 288
167 166 168 173 177 178 172 170 178 189 192 195 201 205 208 212 216 217 219 222 222 220 223 223 221 221 218 215 218 224 226 228 227 223 222 223 225 234 240 239 236 233 231 238 247 253 260 266 268 270 268 257 260 268 270 271 275 273 271 276 281 283 285 284 284 286 290 294 297 297 297 297 298 300 301 302 301 297 290 285 286 287 286 285 287
164 164 167 169 172 176 175 173 181 190 194 197 202 204 207 213 216 218 221 225 227 227 229 228 219 212 210 212 216 219 219 222 224 221 219 222 230 239 236 224 223 233 241 245 247 251 259 263 263 261 248 239 251 262 264 267 271 270 273 278 280 282 283 284 288 292 296 298 298 297 298 300 303 304 301 300 300 293 278 273 280 288 289 286 291
161 160 162 164 168 174 179 180 182 186 190 193 196 200 204 208 211 214 220 225 227 227 228 226 216 210 209 209 213 214 211 215 223 224 224 231 238 236 225 218 229 242 246 244 246 256 266 268 265 254 236 235 247 256 258 263 266 265 270 277 279 281 284 288 290 292 295 295 293 294 297 300 301 300 296 294 295 289 279 275 281 288 290 291 295
157 157 158 162 167 173 178 182 183 185 188 189 191 196 200 204 207 210 214 219 221 222 223 224 220 218 216 211 210 213 212 216 226 230 231 236 236 227 219 226 237 244 246 246 250 254 252 257 264 253 236 236 247 253 257 260 260 260 267 275 278 280 283 288 289 289 290 290 290 293 296 298 298 295 292 293 294 291 288 287 289 291 292 293 295
154 156 158 162 167 171 176 180 182 185 188 187 188 192 196 201 203 201 201 206 213 217 220 222 221 222 224 220 214 213 215 219 228 233 229 225 223 219 221 234 245 250 255 254 249 239 222 229 246 245 237 240 247 252 257 259 258 259 263 265 268 270 275 281 285 286 286 287 290 294 297 299 299 297 297 298 297 297 296 296 295 294 293 294 294
153 155 158 161 166 170 174 178 181 183 185 185 185 185 187 189 188 185 190 200 207 211 217 223 224 224 224 221 215 215 217 217 220 223 218 214 218 222 227 242 253 251 244 238 237 232 217 216 228 237 242 246 248 250 253 254 253 252 253 257 262 269 278 283 282 282 284 288 293 297 299 300 300 299 300 299 298 300 301 300 298 295 292 291 290
152 153 154 157 163 169 172 175 177 178 180 180 178 175 175 179 180 183 192 201 205 209 216 221 224 225 225 223 216 211 211 212 212 212 210 213 222 231 238 246 245 236 225 220 223 219 205 210 229 243 249 249 248 247 245 247 251 256 260 264 270 279 286 282 275 278 284 290 295 298 298 299 300 301 302 301 301 303 302 299 296 293 291 289 286
147 147 148 152 158 163 167 169 169 170 173 173 170 167 168 173 179 186 194 199 202 208 212 214 218 223 225 221 212 198 191 202 214 216 211 212 224 237 241 234 220 209 208 212 208 208 213 222 236 250 255 246 239 237 240 247 255 261 270 277 282 286 283 275 276 282 284 288 293 295 297 299 299 300 301 301 302 302 299 296 294 293 293 292 288
141 143 146 149 154 156 159 162 164 165 167 168 167 167 169 173 178 183 189 195 198 203 206 209 214 220 222 217 205 191 180 187 209 217 216 218 229 232 220 204 198 197 188 177 203 226 234 240 247 253 246 232 231 243 256 262 266 271 278 285 283 276 270 272 281 285 284 289 295 296 298 299 298 299 301 301 301 300 298 298 298 298 299 296 293
143 146 148 149 153 156 157 159 161 162 165 167 168 168 170 173 177 182 188 193 196 201 206 209 213 216 217 211 197 185 185 188 200 218 223 224 223 210 189 185 198 210 199 211 233 243 243 241 238 232 229 226 229 248 259 263 271 279 285 283 271 263 264 274 284 287 290 296 299 297 299 301 300 301 301 300 299 300 302 304 304 304 306 305 302
146 149 147 147 152 157 158 159 161 162 165 167 168 168 171 174 176 181 192 199 204 209 213 215 217 216 213 208 197 186 190 197 201 211 216 210 199 185 178 184 200 207 203 219 233 236 236 237 233 235 245 244 235 240 250 257 263 270 269 262 257 260 270 282 288 290 291 295 298 299 300 301 301 301 301 301 301 304 307 308 307 307 310 311 308
151 152 148 147 152 158 161 163 164 166 169 171 172 174 177 181 185 191 200 209 215 221 221 220 220 217 212 207 199 193 202 212 212 206 199 188 178 172 170 171 175 181 189 189 186 197 219 236 238 232 231 228 230 243 255 257 258 258 255 256 264 268 274 285 291 290 289 292 297 299 299 300 300 301 303 304 305 308 311 310 308 309 313 313 311
156 154 149 149 152 158 164 169 170 173 173 169 166 166 165 168 179 186 198 211 217 225 228 222 215 213 211 200 193 203 215 213 208 202 192 180 169 162 162 163 167 182 195 194 191 203 218 227 235 234 230 233 246 261 266 264 265 264 255 258 276 281 285 294 297 297 298 300 300 299 299 301 302 303 305 306 309 312 314 312 310 312 314 313 312
156 154 154 155 157 162 173 178 177 178 176 166 160 159 160 166 174 178 194 215 218 220 226 225 194 194 210 194 190 202 207 196 194 195 188 181 174 171 177 182 183 193 205 206 207 221 231 239 251 258 259 263 269 272 273 270 271 273 268 269 281 289 294 298 301 304 306 304 299 298 300 302 303 305 307 309 312 315 314 312 313 315 317 317 316
155 156 160 159 159 167 179 183 181 182 182 174 165 161 161 171 190 207 223 228 221 218 221 221 212 212 216 180 188 199 198 188 194 192 181 180 185 190 194 197 199 206 207 200 205 228 245 255 264 266 268 274 276 275 276 274 270 277 285 290 293 296 296 299 305 310 307 302 299 300 302 302 304 307 309 311 312 315 316 317 318 320 321 322 321
153 154 157 154 156 169 181 184 184 187 189 183 172 164 164 167 175 200 217 218 210 207 211 215 216 218 215 198 202 211 207 196 191 176 171 178 187 195 199 198 197 197 189 187 210 240 255 263 270 271 269 274 278 279 283 284 283 288 293 297 300 302 304 309 312 308 301 299 301 303 302 304 306 307 309 311 312 314 317 319 322 324 324 322 320
151 149 150 148 153 167 177 182 186 190 190 187 179 176 186 189 173 162 172 184 191 198 208 216 219 220 218 219 225 224 201 182 171 166 171 179 183 187 189 184 179 179 178 190 227 250 256 262 269 270 268 273 280 283 283 285 291 296 298 300 303 304 308 311 306 298 294 295 299 300 302 307 310 310 310 313 314 315 318 320 322 325 324 321 320
146 140 141 144 152 163 170 174 181 184 185 185 182 182 189 195 184 163 155 157 161 169 193 213 215 214 213 211 208 195 176 167 166 167 169 171 172 173 173 169 167 173 180 198 239 259 263 264 266 267 273 278 281 283 284 284 287 292 296 300 302 304 306 304 296 294 298 300 300 303 308 311 312 311 312 315 316 316 318 320 324 325 323 321 320
140 131 132 138 147 156 163 169 175 178 176 174 173 175 177 183 187 179 171 174 170 155 148 158 171 177 179 170 159 156 157 158 162 164 163 163 164 161 159 161 163 166 175 197 242 263 267 267 265 268 275 275 274 279 283 281 282 288 296 301 304 304 302 298 294 299 306 305 304 309 312 311 311 312 313 315 316 317 318 322 325 325 323 322 322
140 136 140 143 148 154 158 158 155 152 149 151 159 168 172 184 199 202 200 199 179 150 136 136 139 139 142 144 144 146 149 153 155 154 155 159 157 151 154 175 182 183 201 228 245 256 262 263 263 267 271 270 271 276 277 275 279 288 296 301 304 302 297 296 302 308 308 305 305 309 311 310 312 315 316 315 316 317 319 323 325 324 325 326 322
132 132 137 139 141 143 139 132 131 128 115 114 143 167 176 188 198 194 184 177 163 146 138 138 136 131 133 142 149 151 152 153 153 152 154 155 152 153 177 203 203 220 250 254 249 254 259 258 259 264 265 263 267 270 271 273 278 284 287 291 292 291 291 295 302 305 305 304 306 309 311 312 314 317 317 316 317 319 322 325 324 323 325 326 322
112 118 127 127 127 134 134 128 131 137 129 125 140 154 158 163 163 157 151 149 149 145 141 142 147 149 148 153 159 160 155 151 150 154 160 162 163 172 192 201 212 247 260 253 248 256 261 258 257 259 260 262 267 267 268 274 280 283 287 285 276 274 281 286 288 291 294 300 306 311 313 314 316 319 318 316 318 322 324 325 325 325 326 327 326
104 118 134 134 128 131 137 137 140 147 148 149 149 148 145 144 143 141 137 135 142 153 155 164 181 180 162 158 164 164 159 157 161 167 171 177 182 188 194 202 227 250 255 250 247 251 256 259 258 256 257 261 264 263 265 273 281 282 283 280 270 266 273 280 285 291 295 303 311 314 315 316 317 318 318 317 321 325 324 323 326 328 327 328 329
119 125 132 132 125 119 123 130 135 137 138 140 139 136 131 125 125 129 132 146 174 194 199 202 201 182 164 166 173 173 170 176 183 179 177 182 186 187 194 214 235 242 242 247 248 243 247 254 253 251 253 256 257 256 260 271 278 275 270 268 265 265 271 278 287 296 301 307 311 312 313 317 318 317 318 321 322 323 322 323 327 329 327 327 329
126 122 119 118 118 116 116 117 113 109 111 116 119 120 119 116 124 146 180 199 205 204 203 202 186 167 171 184 186 181 180 189 188 181 182 186 188 191 202 220 235 239 239 246 248 244 249 255 250 248 254 254 252 252 255 264 272 269 261 258 259 263 272 276 281 294 301 305 309 312 314 318 318 316 318 321 321 321 324 327 330 331 330 330 332
127 125 122 120 118 116 115 112 105 101 106 110 112 119 126 129 142 177 201 211 209 199 189 174 155 159 183 196 190 184 189 200 194 189 193 193 192 199 211 220 231 240 244 248 247 245 252 259 257 257 257 250 243 246 253 260 266 263 257 257 257 261 273 278 279 290 297 299 306 312 313 313 314 313 315 320 322 324 328 331 332 333 334 335 337
123 124 123 121 120 118 117 118 117 119 126 132 136 144 150 152 161 180 190 195 196 190 176 157 143 150 183 196 192 190 201 215 208 202 205 204 203 209 217 222 229 232 232 235 236 232 237 245 246 245 242 232 227 240 254 259 263 260 255 258 259 261 274 283 284 290 297 300 307 311 310 310 313 314 317 324 327 327 328 333 336 337 337 338 341
126 127 126 125 124 123 125 130 130 128 133 143 151 158 164 168 170 175 184 186 185 189 189 179 165 158 172 191 195 197 207 221 221 214 211 211 212 214 215 216 215 211 211 216 215 212 219 227 224 219 217 214 219 238 252 255 258 256 253 257 260 261 270 278 283 291 300 304 307 309 310 312 314 316 322 327 328 327 330 335 339 339 338 339 342
130 131 130 129 129 129 132 137 135 131 136 148 153 155 162 173 180 190 202 201 196 203 218 220 213 203 192 194 200 202 208 220 226 222 216 214 211 204 200 200 199 200 208 212 207 205 213 220 215 208 208 211 219 235 245 247 246 247 251 257 259 262 269 277 283 292 298 302 306 307 310 315 316 319 326 330 327 328 333 335 338 340 339 339 342
138 136 133 128 126 128 132 136 138 140 146 154 154 153 162 180 195 204 212 216 214 214 220 228 233 231 220 208 204 205 212 223 229 226 221 220 215 206 201 202 202 204 209 208 203 203 211 215 213 209 208 212 220 230 236 239 239 239 246 251 253 264 277 277 279 288 290 295 305 308 309 315 316 317 323 327 326 329 334 334 336 341 340 338 341
132 129 125 119 120 126 135 141 147 153 159 163 164 169 181 192 201 207 210 215 221 224 225 228 231 232 229 223 217 215 220 230 232 226 219 218 217 213 210 208 203 201 203 201 200 203 207 208 209 210 209 210 218 225 228 233 231 231 242 248 246 255 261 257 267 293 295 293 303 308 306 311 316 317 322 328 328 330 334 334 336 341 340 339 343
127 128 129 131 138 147 154 155 160 167 172 172 174 185 192 194 202 211 211 211 221 232 237 240 239 238 239 239 235 231 231 234 235 230 221 214 211 211 212 210 203 198 198 198 198 202 205 205 206 208 208 209 217 223 224 225 225 228 238 243 240 246 249 248 253 275 282 284 298 305 301 305 313 315 320 325 327 329 333 336 339 340 339 340 345
145 146 147 150 157 162 160 160 166 174 176 171 173 182 186 187 193 206 212 218 229 239 246 250 250 249 250 249 246 243 239 234 234 232 222 208 201 204 209 208 202 197 198 199 199 201 204 204 204 206 207 209 215 219 217 218 223 224 226 237 248 259 263 258 252 253 259 276 297 301 298 303 312 314 316 320 323 328 335 338 338 339 339 341 346
142 145 149 153 155 155 152 157 165 169 170 173 177 180 182 189 198 208 216 227 238 245 252 256 256 255 255 252 248 247 244 237 234 230 219 207 202 204 206 203 199 199 201 201 199 200 202 203 203 206 208 210 213 215 215 213 213 211 216 234 253 271 280 271 259 250 250 270 293 297 297 303 310 312 317 322 324 329 336 338 336 336 340 344 347
137 144 150 148 148 149 154 162 169 170 172 181 188 189 194 204 215 224 229 243 255 261 263 264 261 258 257 255 250 248 246 242 236 227 217 210 207 207 205 200 198 199 201 201 200 201 203 204 203 206 208 210 211 213 212 208 207 212 221 234 260 298 300 283 267 252 242 250 277 292 296 301 306 309 317 326 330 330 332 335 335 335 340 348 350